Location: La Silve
(44.2414°N, 5.8889°E)
Time: 05:15:04
(UTC+00:00)

USA 281 - Pass Details

Date: 01 December 2020
Orbit: 1074 x 1084 km, 106.0° (Epoch: 25 January)

Event Time Altitude Azimuth Distance (km) Brightness Sun altitude
Rises 17:19:16 0° 125° (SE) 3,860 5.8 -14.0°
Reaches altitude 10° 17:21:57 10° 118° (ESE) 2,907 5.1 -14.5°
Maximum altitude 17:27:49 37° 53° (NE) 1,611 3.7 -15.5°
Drops below altitude 10° 17:33:42 10° 350° (N) 2,920 5.4 -16.5°
Sets 17:36:23 0° 342° (NNW) 3,880 6.2 -17.0°
